OV1-10 R/B, 2621

Orbit data source: Space-Track

OV1-10 R/B, 2621 is space debris in LEO originally from a launch on Sun, 11 Dec 1966 UTC launched from the Air Force Western Test Range (AFWTR). Debris objects in space refer to the collection of defunct objects orbiting the Earth. Examples of debris include non-operational satellites, rocket bodies, and fragments generated from explosions, collisions, or faulty payload assembly.

Loading next visibility...
Identifier
2621, 1966-111C
Orbit
LEO
Country
Flag of USUS
Related business
Manufacturer
ABL
Mission
Spacecraft
Bus & Motor
ALTAIR, Unknown motor
Mass
125 kg wet, 125 kg dry
Launch date (UTC)
1966-12-11 (59 years ago)
Launch vehicle
Unknown
Launch site
Air Force Western Test Range (AFWTR)
Object type
Payload
Rocket body
Debris
Shape & HBR
Unknown
Radar Cross Section
Large (>1 m²)

Expand to show TLE details & history
Last TLE update: 11 hours ago

TLE from 11 hours ago
0 OV1-10 R/B
1 02621U 66111C   25293.91541856  .00002124  00000-0  24307-3 0  9994
2 02621  93.3956 102.8447 0055805 198.2193 161.7034 14.85028104138849
Epoch: 2025-10-20T21:58Z
TLE epoch observation values (Epoch: 2025-10-20T21:58:12.163Z)
Latitude
0.00003°
Longitude
103.68314°
Altitude
653.697 km
Speed
7.511 km/s
True Right ascension
06h 51m 22s
True Declination
0° 00' 00"
Sunlit
Object was in daylight at epoch
Visualization orbit readout
Latitude
Unknown
Longitude
Unknown
Altitude
Unknown
Speed
Unknown
Apparent Right ascension
Unknown
Apparent Declination
Unknown
Sunlit
N/A
Visualization observer readout
Local Sidereal Time
04:14:01
Azimuth
Unknown
Elevation
Unknown
Doppler factor
Unknown
Orbital elements
Apogee altitude
649.386 km
Perigee altitude
571.387 km
Semi-major axis
6,988.523 km
Eccentricity
0.00558
Inclination
93.3956°
RAAN
102.8447°
Arg. of periapsis
198.2193°
True anomaly
161.90283°
Mean anomaly
161.7034°
Eccentric anomaly
161.80325°
Mean motion
3.71505 °/min
Orbital period
96.9 mins
BSTAR
0.00024307
Loading maneuver chart data...
Computing Atmospheric mass density...
Loading historical data...
Loading historical data...
Loading historical data...
Loading historical data...
Loading historical data...
Loading historical data...
Loading historical data...
Other satellites on launch #111 in the year 1966 (1966-12-11 UTC)

Documentation

Showing up to 5 results
|